Location: Newark
(16.9667°N, 88.2167°W)
Time: 13:58:33
(UTC+00:00)

N. Korean satellite - Visible Passes

Search period start: 22 October 2019 00:00
Search period end: 01 November 2019 00:00
Orbit: 455 x 508 km, 97.2° (Epoch: 21 October)

Date Brightness Start Highest point End Pass type
(mag) Time Alt. Az. Time Alt. Az. Time Alt. Az.
22 Oct 9.6 23:53:15 10° SSW 23:55:52 21° W 23:58:28 10° NW visible
24 Oct 8.9 11:05:57 10° NE 11:09:12 30° E 11:12:29 10° SSE visible
25 Oct 10.3 10:42:15 10° ENE 10:43:54 13° E 10:45:32 10° SE visible
26 Oct 10.5 00:12:24 10° WSW 00:13:18 11° W 00:14:13 10° W visible
26 Oct 9.0 23:45:01 10° SSW 23:47:58 27° W 23:50:55 10° NW visible
27 Oct 7.4 11:22:59 10° NNE 11:26:39 59° E 11:30:18 10° S visible
28 Oct 9.5 10:58:22 10° NE 11:01:21 23° E 11:04:20 10° SSE visible
30 Oct 10.0 00:03:25 10° SW 00:05:22 15° W 00:07:20 10° WNW visible
30 Oct 8.3 23:36:50 10° SSW 23:40:01 37° W 23:43:14 10° NNW visible
31 Oct 8.1 11:15:12 10° NNE 11:18:45 43° E 11:22:17 10° S visible
